Location: Tabor
(49.4170°N, 14.6670°E)
Time: 09:36:46
(UTC+02:00)

ISS - Pass Details

Date: 21 May 2021
Orbit: 417 x 422 km, 51.6° (Epoch: 13 June)

Event Time Altitude Azimuth Distance (km) Brightness Sun altitude
Rises 22:07:53 0° 271° (W) 2,362 0.7 -10.7°
Reaches altitude 10° 22:10:00 10° 275° (W) 1,500 -0.3 -10.9°
Maximum altitude 22:13:19 57° 355° (N) 498 -3.1 -11.2°
Drops below altitude 10° 22:16:40 10° 76° (ENE) 1,504 -1.2 -11.6°
Enters shadow 22:18:23 - 80° (E) 2,202 -0.4 -11.7°
